This is the latest recevied weather packets stored in our database for station/object WA1OUI. If no packets are shown the sender has not sent any weather packets the latest 10 day(s).
| Time | Temp. | Humidity | Pressure | Rain* | Wind** | Luminosity | Snow |
|---|---|---|---|---|---|---|---|
| 1777649713 | 13.89° C | 39% | 1009.7 hPa | 0 mm | - | 800 W/m² | - |
| 1777649408 | 13.89° C | 40% | 1009.4 hPa | 0 mm | - | 776 W/m² | - |
| 1777649106 | 13.89° C | 40% | 1009.5 hPa | 0 mm | - | 780 W/m² | - |
| 1777648803 | 13.89° C | 41% | 1009.6 hPa | 0 mm | - | 770 W/m² | - |
| 1777648500 | 13.89° C | 41% | 1009.7 hPa | 0 mm | - | 808 W/m² | - |
| 1777648196 | 13.89° C | 41% | 1009.7 hPa | 0 mm | - | 761 W/m² | - |
| 1777647891 | 13.89° C | 44% | 1009.7 hPa | 0 mm | - | 750 W/m² | - |
| 1777646983 | 13.33° C | 44% | 1009.6 hPa | 0 mm | - | 717 W/m² | - |
| 1777646374 | 12.78° C | 45% | 1009.7 hPa | 0 mm | - | 78 W/m² | - |
| 1777646071 | 12.78° C | 44% | 1009.7 hPa | 0 mm | - | 707 W/m² | - |
| 1777645767 | 12.78° C | 44% | 1009.7 hPa | 0 mm | - | 512 W/m² | - |
| 1777645465 | 12.22° C | 46% | 1009.9 hPa | 0 mm | - | 306 W/m² | - |
| 1777645160 | 12.22° C | 46% | 1009.7 hPa | 0 mm | - | 192 W/m² | - |
| 1777644857 | 12.22° C | 49% | 1009.7 hPa | 0 mm | - | 323 W/m² | - |
| 1777644555 | 11.67° C | 50% | 1009.8 hPa | 0 mm | - | 499 W/m² | - |
| 1777643947 | 10.56° C | 56% | 1009.9 hPa | 0 mm | - | 337 W/m² | - |
| 1777643644 | 10.56° C | 56% | 1010.1 hPa | 0 mm | - | 69 W/m² | - |
| 1777642734 | 10.56° C | 54% | 1010 hPa | 0 mm | - | 143 W/m² | - |
| 1777642432 | 10.56° C | 55% | 1010 hPa | 0 mm | - | 100 W/m² | - |
| 1777642128 | 10.56° C | 54% | 1010.1 hPa | 0 mm | - | 196 W/m² | - |
| 1777641824 | 10° C | 55% | 1010.2 hPa | 0 mm | - | 164 W/m² | - |
| 1777641520 | 10° C | 57% | 1010.1 hPa | 0 mm | - | 122 W/m² | - |
| 1777641215 | 10° C | 57% | 1010.1 hPa | 0 mm | - | 72 W/m² | - |
| 1777640912 | 9.44° C | 58% | 1010.2 hPa | 0 mm | - | 68 W/m² | - |
| 1777640305 | 9.44° C | 64% | 1010.3 hPa | 0 mm | - | 35 W/m² | - |
* Rain latest hour (hover to see other rain measurements)
** Current wind speed in m/s (hover to see current wind gust speed)